Location: St. Louis
(38.6270°N, 90.1994°W)
Time: 09:10:40
(UTC-06:00)

deb Explorer IX - Pass Details

Date: 07 December 2021
Orbit: 544 x 1082 km, 38.8° (Epoch: 22 January)

Event Time Altitude Azimuth Distance (km) Brightness Sun altitude
Rises 07:56:10 0° 227° (SW) 3,432 ? 7.5°
Reaches altitude 10° 07:59:04 10° 218° (SW) 2,399 ? 7.9°
Maximum altitude 08:04:07 35° 155° (SSE) 1,174 ? 8.7°
Drops below altitude 10° 08:08:30 10° 90° (E) 2,084 ? 9.4°
Sets 08:10:52 0° 81° (E) 2,922 ? 9.7°
